[[{"header":{"parameterUnit":"m.s-1","parameterCategory":1,"la1":30.2991,"la2":30.254,"lo1":-89.0895,"lo2":-89.0444,"dy":0.0017,"dx":0.0017,"nx":28,"ny":28,"refTime":"2023-08-10T03:00:00:Z","depth":0,"parameterNumber":2,"parameterNumberName":"U-component_of_WINDS"},"data":[0,0,0,0,0,0,0,0,0,0,0,0,0,0,0,0,0,0,0,0,0,0,0,0,0,0,0,0,0,0,0,0,0,0,0,0,0,0,0,0,0,0,0,0,0,0,0,0,0,0,0,0,0,0,0,0,0,0,1.3519,1.3521,0,1.3701,1.3703,1.3705,1.3787,1.3786,1.3786,1.3786,1.3976,1.3981,1.3986,0,0,0,0,0,0,0,0,0,0,0,0,0,1.3247,1.3252,1.3519,1.3521,1.3524,1.3701,1.3703,1.3706,1.3787,1.3786,1.3786,1.3786,1.3974,1.398,1.3987,0,0,0,0,0,0,0,0,0,0,0,0,0,1.3391,1.3253,1.3519,1.3585,1.3593,1.37,1.3703,1.3706,1.3787,1.3786,1.3786,1.3786,1.3972,1.398,1.3987,1.4043,0,0,1.4012,1.4015,0,0,0,0,0,0,0,0,1.3382,1.3401,1.3573,1.3581,1.359,1.3721,1.3677,1.3819,1.3787,1.3713,1.3786,1.3786,1.3891,1.3906,1.3941,1.4052,1.406,1.4012,1.4017,1.402,1.4023,0,0,0,0,0,0,0,1.3372,1.3393,1.3591,1.3576,1.3586,1.3608,1.3628,1.3704,1.3802,1.372,1.3726,1.3746,1.3896,1.3933,1.3946,1.4063,1.4012,1.4019,1.4024,1.4027,1.4231,1.4231,0,0,0,0,0,0,1.3351,1.3384,1.3585,1.3597,1.3483,1.3613,1.3635,1.3679,1.3802,1.382,1.3746,1.3749,1.392,1.3937,1.3953,1.4027,1.402,1.4028,1.4032,1.423,1.4231,1.4232,0,0,0,0,0,0,1.3345,1.3368,1.3578,1.3492,1.3521,1.3618,1.3666,1.3683,1.372,1.3822,1.384,1.3766,1.392,1.3942,1.402,1.4035,1.4031,1.4038,1.4229,1.423,1.4231,1.4175,0,0,0,0,0,0,1.3337,1.3365,1.3386,1.3492,1.3525,1.364,1.3667,1.3687,1.3733,1.3739,1.3845,1.3862,1.3922,1.4008,1.4028,1.4046,1.4045,1.4228,1.423,1.4231,1.4176,1.4174,1.4172,0,0,0,0,0,1.3327,1.3363,1.3387,1.341,1.3553,1.3641,1.366,1.3726,1.3734,1.3756,1.3822,1.3859,1.403,1.4015,1.4039,1.4059,1.4228,1.4229,1.4231,1.4177,1.4174,1.4172,0,0,0,0,0,0,1.3257,1.3378,1.3406,1.3477,1.3548,1.3655,1.3685,1.3721,1.3793,1.3795,1.3876,1.3899,1.3971,1.4023,1.4004,1.412,1.4132,1.4139,1.4083,1.4082,1.408,1.4066,1.4051,0,0,0,0,0,1.325,1.331,1.3413,1.3467,1.3501,1.3587,1.3628,1.3673,1.375,1.3781,1.3852,1.3927,1.3998,1.4043,1.4113,1.4184,1.421,1.421,1.4208,1.4206,1.421,1.4254,1.4255,1.4237,1.4237,1.4237,0,0,1.3236,1.331,1.3343,1.3455,1.3515,1.3577,1.3611,1.3675,1.3723,1.3791,1.3869,1.3924,1.4013,1.4088,1.4125,1.4134,1.4221,1.4208,1.4205,1.4211,1.4255,1.4257,1.4258,1.4238,1.4238,1.4237,0,0,1.3242,1.3303,1.3355,1.3415,1.3506,1.3563,1.3575,1.3677,1.3716,1.3796,1.3849,1.3907,1.4027,1.4089,1.4136,1.4168,1.4205,1.4189,1.4179,1.422,1.4222,1.4223,1.4236,1.4239,1.4193,1.4193,1.4193,0,1.3213,1.3308,1.3378,1.3439,1.3488,1.3552,1.3606,1.3661,1.3771,1.3804,1.3812,1.3965,1.4029,1.412,1.4128,1.4164,1.4182,1.4177,1.4216,1.4218,1.4221,1.4234,1.4238,1.419,1.4191,1.4191,1.4191,0,1.3269,1.3334,1.3366,1.3469,1.3521,1.3579,1.3659,1.3704,1.3745,1.3802,1.3884,1.3963,1.4052,1.4077,1.4118,1.4175,1.4178,1.42,1.4214,1.4219,1.4232,1.4238,1.4187,1.4188,1.4188,1.4189,0,0,1.3235,1.3378,1.3388,1.3437,1.3542,1.3595,1.3657,1.3743,1.378,1.3854,1.3909,1.401,1.4032,1.4085,1.4134,1.417,1.4192,1.4188,1.4191,1.4187,1.4261,1.4244,1.4249,1.4217,1.4218,1.4219,1.4254,0,1.3257,1.3368,1.3434,1.3519,1.3581,1.3644,1.3699,1.377,1.3825,1.3888,1.395,1.402,1.4042,1.4075,1.4114,1.4181,1.4208,1.4179,1.4271,1.4273,1.4246,1.4256,1.4238,1.4266,1.426,1.4261,1.4262,0,1.3296,1.3368,1.3459,1.356,1.3589,1.3636,1.3721,1.3779,1.3863,1.3901,1.3961,1.401,1.408,1.4088,1.4187,1.4166,1.4207,1.4246,1.4249,1.426,1.4267,1.4268,1.4277,1.4281,1.427,1.427,1.4269,0,1.3263,1.3383,1.3454,1.3494,1.3613,1.3645,1.3696,1.3779,1.3827,1.3903,1.3935,1.4017,1.4063,1.4126,1.4197,1.4197,1.4289,1.4303,1.4324,1.4322,1.4341,1.4338,1.4357,1.4366,1.4366,1.4366,1.4366,0,1.328,1.3334,1.3441,1.3485,1.3548,1.3624,1.3684,1.3741,1.3815,1.3872,1.3932,1.3985,1.4075,1.4139,1.4196,1.4269,1.4289,1.4323,1.4337,1.4318,1.4314,1.4346,1.4346,1.4367,1.4367,1.4367,1.4367,0,1.3253,1.3327,1.3409,1.3515,1.3543,1.3585,1.3677,1.3723,1.3782,1.3853,1.3875,1.3968,1.4047,1.4124,1.423,1.4268,1.4342,1.4361,1.4313,1.4321,1.4338,1.4335,1.4378,1.4389,1.439,1.439,1.4389,0,1.3259,1.3302,1.3413,1.3455,1.3505,1.3572,1.3622,1.3699,1.3749,1.3849,1.3883,1.3966,1.4037,1.4161,1.4239,1.4321,1.4343,1.4353,1.4356,1.4335,1.4344,1.4341,1.4346,1.435,1.435,1.4349,1.4349,0,1.3262,1.3297,1.3366,1.3448,1.3506,1.3574,1.3645,1.3677,1.3768,1.3821,1.3902,1.3957,1.4066,1.4149,1.424,1.4295,1.4338,1.4348,1.4357,1.4338,1.4309,1.4326,1.4308,1.4346,1.4347,1.4347,1.4347,1.4347,1.3253,1.3295,1.338,1.3455,1.3517,1.3582,1.3631,1.3696,1.3765,1.3859,1.3901,1.3983,1.4068,1.4196,1.425,1.4317,1.4328,1.4341,1.4344,1.4346,1.4343,1.4297,1.4334,1.4334,1.4334,1.4334,1.4335,0,1.326,1.3318,1.3387,1.3484,1.3544,1.3578,1.3659,1.3707,1.3778,1.3854,1.3922,1.4017,1.4098,1.4183,1.4269,1.4307,1.4329,1.4327,1.4325,1.4337,1.4328,1.4311,1.4308,1.4308,1.4308,1.4308,1.4308,1.4308,1.3271,1.3344,1.3389,1.3494,1.3553,1.3633,1.3676,1.3738,1.3798,1.3901,1.3968,1.4023,1.4103,1.4196,1.4273,1.4296,1.4325,1.4318,1.4347,1.4336,1.4338,1.4339,1.4324,1.4324,1.4324,1.4351,1.4351,1.4352]},{"header":{"parameterUnit":"m.s-1","parameterCategory":1,"la1":30.2991,"la2":30.254,"lo1":-89.0895,"lo2":-89.0444,"dy":0.0017,"dx":0.0017,"nx":28,"ny":28,"refTime":"2023-08-10T03:00:00:Z","depth":0,"parameterNumber":3,"parameterNumberName":"V-component_of_WINDS"},"data":[0,0,0,0,0,0,0,0,0,0,0,0,0,0,0,0,0,0,0,0,0,0,0,0,0,0,0,0,0,0,0,0,0,0,0,0,0,0,0,0,0,0,0,0,0,0,0,0,0,0,0,0,0,0,0,0,0,0,5.4827,5.4827,0,5.4863,5.4863,5.4864,5.4852,5.4851,5.485,5.4849,5.4881,5.4883,5.4884,0,0,0,0,0,0,0,0,0,0,0,0,0,5.4742,5.4744,5.4827,5.4827,5.4828,5.4863,5.4863,5.4864,5.4852,5.4851,5.485,5.4849,5.4881,5.4883,5.4884,0,0,0,0,0,0,0,0,0,0,0,0,0,5.4779,5.4745,5.4827,5.4826,5.4826,5.4863,5.4863,5.4864,5.4852,5.4851,5.485,5.4849,5.488,5.4882,5.4885,5.4922,0,0,5.4892,5.4893,0,0,0,0,0,0,0,0,5.4777,5.4782,5.4826,5.4826,5.4827,5.4852,5.4845,5.4883,5.4852,5.4842,5.4849,5.4848,5.4872,5.4875,5.4884,5.4924,5.4925,5.4892,5.4893,5.4894,5.4895,0,0,0,0,0,0,0,5.4774,5.478,5.4841,5.4826,5.4827,5.4822,5.4826,5.4852,5.4863,5.4843,5.4842,5.4847,5.4872,5.4882,5.4885,5.4926,5.4892,5.4894,5.4895,5.4896,5.4998,5.5,0,0,0,0,0,0,5.4772,5.4778,5.484,5.4842,5.4798,5.4825,5.4829,5.4845,5.4863,5.4864,5.4848,5.4846,5.4878,5.4882,5.4886,5.4932,5.4894,5.4897,5.4898,5.4997,5.4999,5.5,0,0,0,0,0,0,5.477,5.4778,5.4838,5.481,5.4817,5.4828,5.4845,5.4846,5.4856,5.4866,5.4868,5.4856,5.4878,5.4882,5.4914,5.4932,5.4898,5.49,5.4996,5.4998,5.4999,5.5023,0,0,0,0,0,0,5.4768,5.4777,5.4793,5.481,5.4819,5.4867,5.4846,5.4848,5.4861,5.4859,5.4875,5.4876,5.4877,5.491,5.4916,5.4935,5.4902,5.4994,5.4997,5.4999,5.5021,5.5026,5.503,0,0,0,0,0,5.4765,5.4796,5.4793,5.4801,5.4839,5.4868,5.4873,5.4875,5.4862,5.4877,5.4884,5.4876,5.493,5.4914,5.492,5.494,5.4993,5.4996,5.4999,5.5019,5.5025,5.503,0,0,0,0,0,0,5.4778,5.4799,5.4796,5.4834,5.485,5.4866,5.4885,5.4881,5.4899,5.4896,5.4896,5.49,5.4932,5.4939,5.4921,5.4978,5.4959,5.4963,5.4972,5.4978,5.4982,5.498,5.4904,0,0,0,0,0,5.4786,5.481,5.4826,5.4858,5.4867,5.4875,5.4887,5.4888,5.4903,5.4909,5.4918,5.4932,5.4952,5.4965,5.4984,5.5022,5.5025,5.5038,5.5043,5.5047,5.505,5.5071,5.5077,5.501,5.501,5.501,0,0,5.4801,5.4816,5.483,5.4861,5.4873,5.4897,5.488,5.4905,5.4922,5.4912,5.4943,5.495,5.4966,5.5001,5.5016,5.5007,5.507,5.505,5.5053,5.5055,5.5075,5.5081,5.5087,5.5012,5.5011,5.5011,0,0,5.4842,5.4855,5.4884,5.4897,5.4917,5.4922,5.4929,5.4947,5.4952,5.4983,5.4977,5.4996,5.5031,5.5042,5.5053,5.5099,5.5092,5.5105,5.5129,5.5149,5.5154,5.5159,5.5176,5.5182,5.5109,5.5109,5.5109,0,5.4858,5.4895,5.4899,5.4926,5.4939,5.4934,5.4962,5.4974,5.4998,5.5007,5.4997,5.5041,5.5051,5.5089,5.51,5.5109,5.5116,5.5103,5.5153,5.5158,5.5163,5.5179,5.5185,5.511,5.511,5.511,5.511,0,5.4914,5.494,5.4961,5.4987,5.5003,5.503,5.5037,5.5052,5.5051,5.5057,5.5089,5.5101,5.5123,5.5132,5.513,5.5169,5.5163,5.5153,5.5135,5.5171,5.5186,5.5192,5.5112,5.5112,5.5111,5.5111,0,0,5.4963,5.4993,5.5,5.5012,5.5034,5.5053,5.508,5.5104,5.5117,5.5133,5.5155,5.5186,5.5177,5.5189,5.5188,5.5206,5.5243,5.5194,5.5194,5.5203,5.5287,5.5294,5.5301,5.5238,5.5239,5.524,5.5286,0,5.5006,5.5056,5.5061,5.5104,5.5128,5.5124,5.5147,5.5162,5.5169,5.5188,5.5195,5.5216,5.5203,5.521,5.5228,5.5235,5.5259,5.5231,5.5258,5.5259,5.5255,5.5309,5.5317,5.5359,5.5291,5.5292,5.5293,0,5.5062,5.5084,5.5131,5.5151,5.5161,5.5182,5.5204,5.5223,5.524,5.5244,5.5258,5.5255,5.5282,5.5263,5.5299,5.528,5.5291,5.5296,5.5297,5.53,5.5278,5.5313,5.5373,5.5379,5.5302,5.5301,5.5301,0,5.5094,5.5134,5.5168,5.5178,5.5202,5.5217,5.5227,5.5243,5.5257,5.5276,5.5285,5.5305,5.5317,5.5332,5.5335,5.5321,5.5371,5.5352,5.5374,5.5374,5.5385,5.5384,5.5447,5.5392,5.5392,5.5392,5.5391,0,5.5141,5.517,5.5183,5.5203,5.5236,5.524,5.5271,5.528,5.5295,5.5316,5.5312,5.5332,5.5334,5.5354,5.5357,5.5386,5.5391,5.5394,5.5394,5.5395,5.5394,5.5402,5.5399,5.5393,5.5393,5.5393,5.5392,0,5.5182,5.5191,5.5228,5.5248,5.5254,5.5277,5.5293,5.5313,5.5319,5.5346,5.5353,5.5362,5.5386,5.5391,5.5417,5.5419,5.5455,5.5452,5.545,5.545,5.5472,5.547,5.5542,5.5551,5.5489,5.549,5.549,0,5.5211,5.5234,5.5258,5.5273,5.5285,5.5309,5.5324,5.5329,5.5345,5.5366,5.5383,5.5406,5.5426,5.5463,5.5471,5.5492,5.549,5.5514,5.5493,5.5493,5.5491,5.549,5.5492,5.5518,5.5518,5.5519,5.5519,0,5.5263,5.5268,5.5291,5.5316,5.5335,5.5354,5.5372,5.5384,5.5392,5.5409,5.5435,5.545,5.5479,5.5502,5.5523,5.5531,5.5526,5.5526,5.5532,5.5533,5.5531,5.5533,5.5461,5.5524,5.5524,5.5523,5.5523,5.5523,5.53,5.532,5.5341,5.5367,5.5382,5.5399,5.5419,5.5429,5.5451,5.5477,5.5477,5.5505,5.5521,5.5549,5.5559,5.558,5.5572,5.5581,5.5583,5.5586,5.5588,5.5528,5.5584,5.5583,5.5583,5.5583,5.5583,0,5.5352,5.5365,5.5389,5.5417,5.5437,5.5433,5.5453,5.547,5.5495,5.5512,5.5532,5.5561,5.5583,5.5594,5.5617,5.5631,5.5629,5.5637,5.5636,5.5638,5.5594,5.5586,5.5638,5.5638,5.5638,5.5638,5.5638,5.5638,5.5381,5.5416,5.5423,5.5465,5.5477,5.5507,5.5519,5.5534,5.5548,5.5582,5.5602,5.5609,5.5623,5.5647,5.5667,5.5669,5.5678,5.5686,5.5688,5.5646,5.5641,5.5635,5.5629,5.5688,5.5688,5.573,5.5731,5.5731]}]]